User: anonymous   Login
Location: Unspecified
(38.7273°N, 77.0677°W)
Time: 16:19:03
(UTC-04:00)
Language:

CAS-4B - Orbit

View from above orbital plane
View from above orbital plane
View from above satellite
View from above satellite

Ground track
Ground track

The orbit data is extracted from the following two-line orbital elements,

1 42759U 17034B   21270.54966185  .00001028  00000-0  74795-4 0  9995
2 42759  43.0194 339.7285 0006768  80.2597  59.2425 15.10390174236587
Epoch (UTC): 27 September 2021 13:11:30
Eccentricity: 0.0006768
inclination: 43.0194°
perigee height: 530 km
apogee height: 539 km
right ascension of ascending node: 339.7285°
argument of perigee: 80.2597°
revolutions per day: 15.10390174
mean anomaly at epoch: 59.2425°
orbit number at epoch: 23658

The dashed part of the orbit path shows where the satellite is in the earth's shadow,  

DLR